CW5575 Weather Reports


Display with metric or nautical units.
time (UTC)temp
F
wind
direction
speed
MPH
gust
MPH
rain 1hr
in
rain 24hr
in
rain mn
in
humidity
%
barometer
mb
20260509101008 70 304 0.0 3.0 0.00 0.00 0.00 90 1009.5
20260509100507 70 250 0.0 2.0 0.00 0.00 0.00 90 1009.5
20260509100024 70 233 0.0 4.0 0.00 0.00 0.00 90 1009.1
20260509095507 70 204 1.0 4.0 0.00 0.00 0.00 90 1009.1
20260509095007 69 260 2.0 7.0 0.00 0.00 0.00 90 1009.0
20260509094526 69 225 2.0 7.0 0.00 0.00 0.00 90 1008.5
20260509094009 69 241 2.0 9.0 0.00 0.00 0.00 90 1007.9
20260509093508 69 155 1.0 9.0 0.00 0.00 0.00 90 1008.0
20260509093010 69 175 4.0 9.0 0.00 0.00 0.00 90 1007.9
20260509092503 69 115 2.0 9.0 0.00 0.00 0.00 90 1008.0
20260509092003 69 199 3.0 9.0 0.00 0.00 0.00 90 1007.7
20260509091507 69 184 3.0 9.0 0.00 0.00 0.00 90 1007.6
20260509091003 69 91 2.0 10.0 0.00 0.00 0.00 89 1007.6
20260509090504 69 175 3.0 10.0 0.00 0.00 0.00 89 1007.8
20260509090009 69 163 3.0 8.0 0.00 0.00 0.00 89 1007.9
20260509085505 69 179 3.0 8.0 0.00 0.00 0.00 89 1008.0
20260509085004 69 202 2.0 8.0 0.00 0.00 0.00 89 1008.2
20260509084515 69 144 3.0 5.0 0.00 0.00 0.00 89 1008.6
20260509084002 69 156 2.0 5.0 0.00 0.00 0.00 89 1009.1
20260509083503 69 148 1.0 6.0 0.00 0.00 0.00 89 1009.5
20260509083004 69 149 1.0 6.0 0.00 0.00 0.00 89 1009.5
20260509082502 69 170 1.0 5.0 0.00 0.00 0.00 89 1009.8
20260509082002 69 227 1.0 3.0 0.00 0.00 0.00 89 1010.1
20260509081508 69 155 1.0 3.0 0.00 0.00 0.00 89 1010.2
20260509081006 69 126 1.0 2.0 0.00 0.00 0.00 89 1010.3
20260509080504 69 148 0.0 2.0 0.00 0.00 0.00 89 1010.5
20260509080008 69 186 0.0 2.0 0.00 0.00 0.00 89 1010.7
20260509075506 69 169 0.0 2.0 0.00 0.00 0.00 89 1010.7
20260509075002 69 171 0.0 2.0 0.00 0.00 0.00 90 1010.8
20260509074512 69 229 0.0 2.0 0.00 0.00 0.00 90 1010.9
20260509074003 68 229 0.0 2.0 0.00 0.00 0.00 90 1011.1
20260509073507 68 229 0.0 2.0 0.00 0.00 0.00 90 1011.2
20260509073018 68 211 1.0 2.0 0.00 0.00 0.00 90 1011.2
20260509072503 68 211 0.0 2.0 0.00 0.00 0.00 90 1011.3
20260509072002 68 211 0.0 0.0 0.00 0.00 0.00 90 1011.3
20260509071504 67 211 0.0 2.0 0.00 0.00 0.00 89 1011.2
20260509071003 67 211 0.0 2.0 0.00 0.00 0.00 89 1011.2
20260509070504 67 211 0.0 2.0 0.00 0.00 0.00 89 1010.9
20260509070005 67 211 0.0 2.0 0.00 0.00 0.00 88 1010.4
20260509065504 68 211 0.0 2.0 0.00 0.00 0.00 88 1010.3
20260509065004 68 242 0.0 2.0 0.00 0.00 0.00 88 1010.4
20260509064510 68 242 0.0 0.0 0.00 0.00 0.00 87 1010.6
20260509064003 68 242 0.0 2.0 0.00 0.00 0.00 87 1010.7
20260509063505 68 242 0.0 2.0 0.00 0.00 0.00 87 1010.6
20260509063016 68 227 0.0 2.0 0.00 0.00 0.00 87 1010.4
20260509062508 69 221 0.0 1.0 0.00 0.00 0.00 86 1010.6
20260509062008 69 221 0.0 2.0 0.00 0.00 0.00 86 1011.0
20260509061519 69 221 0.0 2.0 0.00 0.00 0.00 85 1011.1
20260509061005 70 221 0.0 2.0 0.00 0.00 0.00 85 1011.1
20260509060505 70 221 0.0 2.0 0.00 0.00 0.00 84 1011.2
20260509060007 70 221 0.0 2.0 0.00 0.00 0.00 84 1011.3
20260509055504 70 221 0.0 3.0 0.00 0.00 0.00 84 1010.9
20260509055005 71 209 1.0 3.0 0.00 0.00 0.00 84 1011.0
20260509054520 70 58 0.0 2.0 0.00 0.00 0.00 84 1011.4
20260509054004 70 58 0.0 2.0 0.00 0.00 0.00 84 1011.6
20260509053504 70 58 0.0 3.0 0.00 0.00 0.00 84 1011.8
20260509053028 70 58 1.0 3.0 0.00 0.00 0.00 83 1011.8
20260509052505 71 42 1.0 2.0 0.00 0.00 0.00 83 1011.5
20260509052011 71 135 1.0 5.0 0.00 0.00 0.00 83 1011.0
20260509051518 71 190 1.0 5.0 0.00 0.00 0.00 83 1010.7
20260509051007 71 236 1.0 3.0 0.00 0.00 0.00 82 1010.8
20260509050507 71 124 1.0 4.0 0.00 0.00 0.00 82 1010.9
20260509050015 71 184 1.0 6.0 0.00 0.00 0.00 83 1010.5
20260509045502 71 218 2.0 6.0 0.00 0.00 0.00 83 1010.4
20260509045003 71 215 1.0 4.0 0.00 0.00 0.00 83 1010.4
20260509044514 70 232 1.0 3.0 0.00 0.00 0.00 83 1010.2
20260509044004 70 184 1.0 2.0 0.00 0.00 0.00 83 1010.1
20260509043504 70 192 1.0 2.0 0.00 0.00 0.00 83 1010.4
20260509043009 70 127 0.0 2.0 0.00 0.00 0.00 82 1010.7
20260509042504 71 127 0.0 2.0 0.00 0.00 0.00 82 1010.8
20260509042008 71 127 0.0 0.0 0.00 0.00 0.00 82 1011.0
20260509041514 71 127 0.0 2.0 0.00 0.00 0.00 81 1011.2
20260509041006 71 127 0.0 2.0 0.00 0.00 0.00 81 1011.3
20260509040508 71 127 0.0 2.0 0.00 0.00 0.00 81 1011.4
20260509040020 71 127 0.0 2.0 0.00 0.00 0.00 80 1011.3
20260509035506 71 127 0.0 2.0 0.00 0.00 0.00 80 1011.2
20260509035011 71 127 0.0 2.0 0.00 0.00 0.00 80 1011.2
20260509034504 71 127 0.0 1.0 0.00 0.00 0.00 80 1011.0
20260509034004 71 127 0.0 1.0 0.00 0.00 0.00 80 1010.8
20260509033503 71 127 0.0 2.0 0.00 0.00 0.00 80 1010.8
20260509033008 71 127 0.0 2.0 0.00 0.00 0.00 79 1010.7
20260509032504 71 127 0.0 2.0 0.00 0.00 0.00 79 1010.7
20260509032004 71 127 0.0 2.0 0.00 0.00 0.00 79 1010.6
20260509031516 71 120 1.0 2.0 0.00 0.00 0.00 79 1010.6
20260509031004 71 147 0.0 2.0 0.00 0.00 0.00 79 1010.7
20260509030508 71 150 0.0 2.0 0.00 0.00 0.00 78 1010.6
20260509030015 71 132 1.0 2.0 0.00 0.00 0.00 78 1010.4
20260509025503 71 126 0.0 2.0 0.00 0.00 0.00 78 1010.3
20260509025003 71 202 1.0 3.0 0.00 0.00 0.00 78 1010.2
20260509024504 72 152 1.0 3.0 0.00 0.00 0.00 78 1010.2
20260509024003 72 173 0.0 2.0 0.00 0.00 0.00 78 1010.1
20260509023503 71 215 0.0 2.0 0.00 0.00 0.00 78 1009.9
20260509023016 71 53 0.0 2.0 0.00 0.00 0.00 78 1009.8
20260509022504 71 126 1.0 2.0 0.00 0.00 0.00 78 1009.8
20260509022002 71 171 0.0 2.0 0.00 0.00 0.00 79 1009.6
20260509021513 71 171 0.0 2.0 0.00 0.00 0.00 79 1009.7
20260509021005 71 171 0.0 1.0 0.00 0.00 0.00 79 1009.8
20260509020503 71 171 0.0 1.0 0.00 0.00 0.00 79 1009.8
20260509020015 71 171 0.0 1.0 0.00 0.00 0.00 79 1009.7
20260509015507 71 228 0.0 2.0 0.00 0.00 0.00 79 1009.8
20260509015004 71 228 0.0 2.0 0.00 0.00 0.00 79 1009.8
20260509014503 71 273 0.0 2.0 0.00 0.00 0.00 79 1009.7
20260509014003 71 273 0.0 2.0 0.00 0.00 0.00 79 1009.6
20260509013503 71 273 0.0 2.0 0.00 0.00 0.00 78 1009.6
20260509013007 72 273 0.0 2.0 0.00 0.00 0.00 78 1009.6
20260509012503 72 273 0.0 2.0 0.00 0.00 0.00 77 1009.5
20260509012003 72 273 0.0 2.0 0.00 0.00 0.00 77 1009.4
20260509011508 72 288 0.0 2.0 0.00 0.00 0.00 76 1009.4
20260509011002 72 288 0.0 2.0 0.00 0.00 0.00 76 1009.2
20260509010507 72 214 0.0 2.0 0.00 0.00 0.00 76 1009.1
20260509010017 72 234 0.0 3.0 0.00 0.00 0.00 75 1008.9
20260509005507 73 246 1.0 3.0 0.00 0.00 0.00 74 1008.9
20260509005006 73 252 0.0 5.0 0.00 0.00 0.00 74 1008.8
20260509004518 73 216 1.0 5.0 0.00 0.00 0.00 74 1008.8
20260509004007 73 186 2.0 5.0 0.00 0.00 0.00 74 1008.9
20260509003504 73 247 1.0 5.0 0.00 0.00 0.00 74 1008.9
20260509003004 73 233 1.0 5.0 0.00 0.00 0.00 74 1008.8
20260509002503 73 170 2.0 5.0 0.00 0.00 0.00 74 1008.7
20260509002004 73 198 1.0 4.0 0.00 0.00 0.00 73 1008.9
20260509001508 73 167 0.0 3.0 0.00 0.00 0.00 73 1009.0
20260509001004 73 179 0.0 4.0 0.00 0.00 0.00 73 1009.1
20260509000507 73 203 1.0 4.0 0.00 0.00 0.00 72 1009.1
20260509000014 73 191 0.0 4.0 0.00 0.00 0.00 72 1009.2
20260508235507 74 241 1.0 7.0 0.00 0.00 0.00 72 1009.2
20260508235008 74 194 1.0 7.0 0.00 0.00 0.00 71 1009.3
20260508234521 74 163 1.0 4.0 0.00 0.00 0.00 71 1009.4
20260508234008 74 217 1.0 4.0 0.00 0.00 0.00 71 1009.3
20260508233507 74 179 1.0 4.0 0.00 0.00 0.00 72 1009.4
20260508233023 74 159 0.0 4.0 0.00 0.00 0.00 71 1009.4
20260508232508 74 159 1.0 3.0 0.00 0.00 0.00 71 1009.4
20260508232003 74 198 0.0 5.0 0.00 0.00 0.00 70 1009.4
20260508231504 74 134 1.0 5.0 0.00 0.00 0.00 70 1009.4
20260508231004 74 165 1.0 4.0 0.00 0.00 0.00 70 1009.5
20260508230504 74 173 0.0 7.0 0.00 0.00 0.00 71 1009.6
20260508230010 74 197 3.0 7.0 0.00 0.00 0.00 70 1009.6
20260508225506 74 267 2.0 7.0 0.00 0.00 0.00 70 1009.5
20260508225004 74 256 2.0 9.0 0.00 0.00 0.00 70 1009.6
20260508224516 74 233 4.0 12.0 0.00 0.00 0.00 68 1009.6
20260508224006 75 207 5.0 12.0 0.00 0.00 0.00 68 1009.6
20260508223509 75 196 4.0 9.0 0.00 0.00 0.00 69 1009.5
20260508223022 74 221 4.0 9.0 0.00 0.00 0.00 70 1009.5
20260508222505 74 227 1.0 9.0 0.00 0.00 0.00 70 1009.5
20260508222009 75 230 3.0 10.0 0.00 0.00 0.00 70 1009.5
20260508221523 75 186 4.0 10.0 0.00 0.00 0.00 69 1009.5
20260508221002 76 226 3.0 8.0 0.00 0.00 0.00 67 1009.4
20260508220501 76 258 3.0 7.0 0.00 0.00 0.00 68 1009.3
20260508220010 76 259 3.0 8.0 0.00 0.00 0.00 67 1009.3
20260508215509 77 246 3.0 9.0 0.00 0.00 0.00 69 1009.2
20260508215005 77 218 2.0 9.0 0.00 0.00 0.00 70 1009.1
20260508214515 75 205 3.0 8.0 0.00 0.00 0.00 72 1009.1
20260508214004 74 217 2.0 7.0 0.00 0.00 0.00 73 1009.0
20260508213505 74 187 2.0 4.0 0.00 0.00 0.00 74 1009.4
20260508213018 73 286 1.0 4.0 0.00 0.00 0.00 79 1009.2
20260508212512 72 171 2.0 5.0 0.00 0.00 0.00 77 1009.1
20260508212010 72 63 1.0 8.0 0.00 0.00 0.00 76 1010.1
20260508211528 73 9 3.0 8.0 0.00 0.00 0.00 73 1009.0
20260508211009 73 197 4.0 8.0 0.00 0.00 0.00 73 1010.7
20260508210506 73 226 3.0 6.0 0.00 0.00 0.00 71 1010.5
20260508210028 74 209 1.0 6.0 0.00 0.00 0.00 71 1010.6
20260508205503 74 242 1.0 5.0 0.00 0.00 0.00 70 1011.1
20260508205002 74 252 2.0 5.0 0.00 0.00 0.00 69 1011.1
20260508204511 74 239 2.0 5.0 0.00 0.00 0.00 69 1011.3
20260508204007 74 255 2.0 4.0 0.00 0.00 0.00 69 1011.3
20260508203506 74 234 2.0 7.0 0.00 0.00 0.00 68 1011.2
20260508203017 74 265 3.0 6.0 0.00 0.00 0.00 67 1011.2
20260508202506 75 269 3.0 9.0 0.00 0.00 0.00 67 1011.1
20260508202005 75 229 1.0 9.0 0.00 0.00 0.00 67 1011.1
20260508201523 75 240 3.0 8.0 0.00 0.00 0.00 67 1011.1
20260508201012 75 236 1.0 7.0 0.00 0.00 0.00 67 1011.0
20260508200506 75 246 3.0 9.0 0.00 0.00 0.00 65 1010.9
20260508200029 76 256 1.0 10.0 0.00 0.00 0.00 66 1011.0
20260508195507 76 261 1.0 10.0 0.00 0.00 0.00 65 1011.0
20260508195007 76 261 5.0 10.0 0.00 0.00 0.00 65 1011.1
20260508194510 77 267 4.0 10.0 0.00 0.00 0.00 64 1011.2
20260508194007 76 172 4.0 9.0 0.00 0.00 0.00 64 1011.2
20260508193506 76 252 5.0 11.0 0.00 0.00 0.00 63 1011.2
20260508193016 76 250 4.0 11.0 0.00 0.00 0.00 63 1011.3
20260508192509 77 279 3.0 9.0 0.00 0.00 0.00 64 1011.4
20260508192008 77 211 3.0 9.0 0.00 0.00 0.00 64 1011.4
20260508191520 77 236 3.0 9.0 0.00 0.00 0.00 63 1011.4
20260508191008 77 210 3.0 10.0 0.00 0.00 0.00 63 1011.5
20260508190508 77 281 3.0 10.0 0.00 0.00 0.00 62 1011.6
20260508190035 77 215 1.0 10.0 0.00 0.00 0.00 61 1011.6
20260508185508 78 231 3.0 10.0 0.00 0.00 0.00 59 1011.5
20260508185008 78 231 3.0 7.0 0.00 0.00 0.00 60 1011.6
20260508184528 78 252 2.0 9.0 0.00 0.00 0.00 59 1011.6
20260508184008 79 138 2.0 9.0 0.00 0.00 0.00 58 1011.7
20260508183509 80 155 2.0 7.0 0.00 0.00 0.00 59 1011.6
20260508183014 80 240 2.0 7.0 0.00 0.00 0.00 59 1011.7
20260508182504 80 200 2.0 6.0 0.00 0.00 0.00 58 1011.7
20260508182006 80 168 3.0 5.0 0.00 0.00 0.00 59 1011.9
20260508181518 79 271 2.0 6.0 0.00 0.00 0.00 59 1012.0
20260508181009 79 157 2.0 6.0 0.00 0.00 0.00 59 1012.1
20260508180509 78 306 2.0 7.0 0.00 0.00 0.00 59 1012.2
20260508180025 79 207 2.0 7.0 0.00 0.00 0.00 61 1012.3
20260508175511 79 207 2.0 6.0 0.00 0.00 0.00 59 1012.5
20260508175010 78 161 2.0 11.0 0.00 0.00 0.00 58 1012.6
20260508174540 78 188 2.0 11.0 0.00 0.00 0.00 60 1012.7
20260508174008 78 234 2.0 7.0 0.00 0.00 0.00 57 1012.8
20260508173509 78 184 1.0 8.0 0.00 0.00 0.00 59 1012.8
20260508173031 77 190 2.0 8.0 0.00 0.00 0.00 58 1012.8
20260508172516 77 70 2.0 6.0 0.00 0.00 0.00 61 1012.9
20260508172006 77 229 3.0 7.0 0.00 0.00 0.00 61 1013.0
20260508171514 76 118 2.0 7.0 0.00 0.00 0.00 61 1013.1
20260508171007 76 165 2.0 6.0 0.00 0.00 0.00 62 1013.4
20260508170506 75 180 2.0 6.0 0.00 0.00 0.00 62 1013.5
20260508170022 75 240 2.0 6.0 0.00 0.00 0.00 64 1013.6
20260508165507 74 153 2.0 6.0 0.00 0.00 0.00 65 1013.7
20260508165009 74 258 2.0 6.0 0.00 0.00 0.00 63 1013.8
20260508164523 74 217 1.0 7.0 0.00 0.00 0.00 64 1013.9
20260508164007 74 104 2.0 8.0 0.00 0.00 0.00 64 1014.0
20260508163511 73 167 2.0 8.0 0.00 0.00 0.00 65 1014.1
20260508163040 73 245 2.0 7.0 0.00 0.00 0.00 66 1014.2
20260508162511 73 263 3.0 8.0 0.00 0.00 0.00 65 1014.3
20260508162011 72 204 1.0 8.0 0.00 0.00 0.00 65 1014.3
20260508161528 72 232 3.0 7.0 0.00 0.00 0.00 64 1014.3
20260508161012 72 229 1.0 6.0 0.00 0.00 0.00 66 1014.3
20260508160506 71 198 2.0 6.0 0.00 0.00 0.00 65 1014.3
20260508160024 72 169 1.0 4.0 0.00 0.00 0.00 68 1014.4
20260508155506 70 188 1.0 6.0 0.00 0.00 0.00 70 1014.5
20260508155007 70 193 1.0 6.0 0.00 0.00 0.00 67 1014.6
20260508154529 70 270 3.0 6.0 0.00 0.00 0.00 67 1014.6
20260508154015 69 201 1.0 6.0 0.00 0.00 0.00 68 1014.6
20260508153509 69 233 2.0 6.0 0.00 0.00 0.00 68 1014.7
20260508153029 69 205 2.0 6.0 0.00 0.00 0.00 67 1014.8
20260508152510 70 205 3.0 6.0 0.00 0.00 0.00 67 1014.7
20260508152013 70 231 2.0 7.0 0.00 0.00 0.00 67 1014.7
20260508151533 70 243 2.0 8.0 0.00 0.00 0.00 67 1014.7
20260508151007 70 245 2.0 8.0 0.00 0.00 0.00 67 1014.7
20260508150512 70 169 2.0 5.0 0.00 0.00 0.00 69 1014.8
20260508150031 69 242 2.0 5.0 0.00 0.00 0.00 69 1014.7
20260508145510 69 176 2.0 5.0 0.00 0.00 0.00 69 1014.7
20260508145007 69 120 1.0 7.0 0.00 0.00 0.00 70 1014.6
20260508144519 69 61 1.0 7.0 0.00 0.00 0.00 69 1014.5
20260508144008 68 182 1.0 7.0 0.00 0.00 0.00 70 1014.5
20260508143508 68 205 2.0 7.0 0.00 0.00 0.00 71 1014.6
20260508143022 68 186 2.0 6.0 0.00 0.00 0.00 71 1014.7
20260508142507 68 201 2.0 6.0 0.00 0.00 0.00 70 1014.9
20260508142009 68 153 2.0 6.0 0.00 0.00 0.00 72 1014.9
20260508141528 67 152 2.0 7.0 0.00 0.00 0.00 73 1015.1
20260508141011 66 133 3.0 7.0 0.00 0.00 0.00 73 1015.1
20260508140514 66 209 1.0 9.0 0.00 0.00 0.00 74 1015.1
20260508140030 65 247 2.0 9.0 0.00 0.00 0.00 75 1015.3
20260508135512 65 203 1.0 9.0 0.00 0.00 0.00 76 1015.2
20260508135013 65 190 3.0 9.0 0.00 0.00 0.00 76 1014.9
20260508134534 64 151 2.0 6.0 0.00 0.00 0.00 78 1015.0
20260508134008 64 113 2.0 6.0 0.00 0.00 0.00 78 1014.9
20260508133509 63 263 2.0 5.0 0.00 0.00 0.00 79 1014.9
20260508133024 63 107 2.0 4.0 0.00 0.00 0.00 80 1015.0
20260508132508 62 158 1.0 4.0 0.00 0.00 0.00 82 1015.1
20260508132007 62 155 2.0 4.0 0.00 0.00 0.00 83 1015.2
20260508131527 61 192 1.0 4.0 0.00 0.00 0.00 85 1015.2
20260508131011 61 196 1.0 4.0 0.00 0.00 0.00 87 1015.3
20260508130508 60 182 0.0 2.0 0.00 0.00 0.00 88 1015.5
20260508130026 60 162 0.0 2.0 0.00 0.00 0.00 88 1015.5
20260508125511 59 162 0.0 2.0 0.00 0.00 0.00 88 1015.4
20260508125011 59 162 0.0 2.0 0.00 0.00 0.00 88 1015.5
20260508124530 59 162 0.0 2.0 0.00 0.00 0.00 89 1015.4
20260508124011 59 162 0.0 2.0 0.00 0.00 0.00 89 1015.3
20260508123508 59 162 0.0 2.0 0.00 0.00 0.00 89 1015.0
20260508123032 59 119 0.0 2.0 0.00 0.00 0.00 89 1015.0
20260508122508 59 119 0.0 2.0 0.00 0.00 0.00 89 1015.2
20260508122007 59 119 0.0 0.0 0.00 0.00 0.00 89 1015.3
20260508121524 59 119 0.0 1.0 0.00 0.00 0.00 90 1015.4
20260508121003 59 119 0.0 2.0 0.00 0.00 0.00 90 1015.4
20260508120502 59 119 0.0 2.0 0.00 0.00 0.00 89 1015.2
20260508120009 59 119 0.0 0.0 0.00 0.00 0.00 89 1015.3
20260508115505 59 119 0.0 0.0 0.00 0.00 0.00 89 1015.3
20260508115005 59 119 0.0 0.0 0.00 0.00 0.00 89 1015.4
20260508114515 59 119 0.0 0.0 0.00 0.00 0.00 89 1015.3
20260508114007 59 119 0.0 2.0 0.00 0.00 0.00 89 1015.6
20260508113508 59 119 0.0 2.0 0.00 0.00 0.00 89 1015.7
20260508113022 59 119 0.0 2.0 0.00 0.00 0.00 89 1015.6
20260508112508 59 119 0.0 2.0 0.00 0.00 0.00 89 1015.7
20260508112009 59 102 0.0 2.0 0.00 0.00 0.00 89 1016.0
20260508111525 59 102 0.0 2.0 0.00 0.00 0.00 89 1016.2
20260508111011 59 102 0.0 2.0 0.00 0.00 0.00 89 1016.3
20260508110507 58 102 0.0 2.0 0.00 0.00 0.00 88 1016.0
20260508110031 58 113 0.0 2.0 0.00 0.00 0.00 88 1015.5
20260508105503 58 113 0.0 0.0 0.00 0.00 0.00 88 1015.1
20260508105003 58 113 0.0 0.0 0.00 0.00 0.00 88 1015.0
20260508104510 58 113 0.0 2.0 0.00 0.00 0.00 88 1014.8
20260508104005 58 113 0.0 2.0 0.00 0.00 0.00 88 1014.5
20260508103507 58 113 0.0 2.0 0.00 0.00 0.00 88 1014.3
20260508103017 58 147 0.0 2.0 0.00 0.00 0.00 88 1014.2
20260508102510 59 162 0.0 2.0 0.00 0.00 0.00 88 1014.1
20260508102007 59 123 0.0 2.0 0.00 0.00 0.00 87 1014.1
20260508101531 59 106 0.0 2.0 0.00 0.00 0.00 87 1014.3